Voltar ao catálogo

STARLINK-32466

AtivoComunicaçõesVLEO
NORAD 61859·PAYLOAD·🇺🇸 United States

Lançado Nov 7, 2024 de Cape Canaveral Space Force Station

Loading…

Próximas Passagens (próximas 24 horas)

TLE

AtualizadoSource: CelesTrak SupGP

Época: Sep 15, 2026, 03:26 UTC

1 61859C 24202Q   26258.14354167 -.00024518  00000+0 -88813-3 0  2583
2 61859  43.0022 248.0691 0001213 264.9098  35.0695 15.27587356    15

Acompanhe STARLINK-32466 em tempo real com AllMySat

Download on the App Store